User: anonymous   Login
Location: Lynch Observatory
(39.9540°N, 75.1861°W)
Time: 13:44:46
(UTC-04:00)
Language:

SO-50 - Orbit

View from above orbital plane
View from above orbital plane
View from above satellite
View from above satellite

Ground track
Ground track

The orbit data is extracted from the following two-line orbital elements,

1 27607U 02058C   24107.18924791  .00003531  00000-0  49571-3 0  9993
2 27607  64.5559  52.0633 0032041 142.1895 218.1469 14.78618501147360
Epoch (UTC): 16 April 2024 04:32:31
Eccentricity: 0.0032041
inclination: 64.5559°
perigee height: 611 km
apogee height: 656 km
right ascension of ascending node: 52.0633°
argument of perigee: 142.1895°
revolutions per day: 14.78618501
mean anomaly at epoch: 218.1469°
orbit number at epoch: 14736

The dashed part of the orbit path shows where the satellite is in the earth's shadow,  

DLR